weather.gov     
National Weather Service

Regional Weather Roundup
NWS Homepage
This page is being discontinued on March 12, 2014.
The same data is available at this site. Please update your bookmarks.
Thank you, and we apologize for the inconvenience.
Please send an email to SR-SRH.Webmaster@noaa.gov with any concerns.


Current Version
Previous Version:    01  02  03  04  05  06  07  08  09  10  11  12  13  14  15  16  17  18  19  20  21  22  23  24  25  26  27  28  29  30  
   31  32  33  34  35  36  37  38  39  40  41  42  43  44  45  46  47  48  49  50  51  52  53  54  
[Printable]
446
ASUS44 KMEG 240710
RWRMEG
MEMPHIS CWA HOURLY WEATHER ROUNDUP
NATIONAL WEATHER SERVICE MEMPHIS TN
200 AM CDT THU APR 24 2014

...WEST TENNESSEE...

CITY           SKY/WX    TMP DP  RH WIND       PRES   REMARKS
MEMPHIS INTL   PTCLDY    60  40  47 CALM      29.92F
NWS MEMPHIS      N/A     51 N/A N/A MISG        N/A
JACKSON        CLEAR     53  37  54 E3        29.95F
LEXINGTON      CLEAR     45  37  76 CALM      29.96S
SAVANNAH       CLEAR     43  43 100 CALM      29.96F
DYERSBURG      CLEAR     55  34  44 E5        29.95F
UNION CITY     CLEAR     48  39  71 CALM      29.95F
PARIS          PTCLDY    48  35  60 E5        29.97S


...EASTERN ARKANSAS...

CITY           SKY/WX    TMP DP  RH WIND       PRES   REMARKS
JONESBORO      PTCLDY    53  43  68 NE5       29.91F
WEST MEMPHIS   PTCLDY    55  43  63 SE6       29.91F
BATESVILLE     MOCLDY    59  43  55 SE5       29.89F
NEWPORT        MOCLDY    58  44  59 E15       29.91F
WALNUT RIDGE   MOCLDY    55  39  54 E8        29.90F
BLYTHEVILLE    PTCLDY    54  40  59 SE8       29.93F
SEARCY         MOCLDY    55  48  77 N3        29.90F
STUTTGART      CLEAR     61  45  55 E7        29.89F
PINE BLUFF     CLEAR     57  50  77 CALM      29.87F
MONTICELLO     CLEAR     61  46  57 SE5       29.87F


...NORTH MISSISSIPPI...

CITY           SKY/WX    TMP DP  RH WIND       PRES   REMARKS
TUPELO         CLEAR     50  45  83 CALM      29.94F
OXFORD         CLEAR     50  41  71 SE3       29.94F
OLIVE BRANCH   CLEAR     54  41  62 E3        29.93F
TUNICA         PTCLDY    54  45  71 NE3       29.92F
CLARKSDALE       N/A     55  46  71 SE5       29.90F
CORINTH        CLEAR     46  45  93 W3        29.96R
GRENADA        CLEAR     46  45  93 CALM      29.93F
GREENWOOD      CLEAR     54  47  77 E6        29.91F
COLUMBUS       CLEAR     49  49  99 CALM      29.93F
STARKVILLE     FAIR      50  46  87 CALM      29.93F
GOLDEN TRIANGL CLEAR     54  45  71 CALM      29.96S


...SOUTHEAST MISSOURI...

CITY           SKY/WX    TMP DP  RH WIND       PRES   REMARKS
DONIPHAN         N/A     55  40  56 E3          N/A
WEST PLAINS    CLOUDY    57  37  47 SE8       29.91F
POPLAR BLUFF   PTCLDY    54  39  57 E5        29.92F
CAPE GIRARDEAU PTCLDY    51  38  60 E7        29.93F


...NORTHWEST ALABAMA...

CITY           SKY/WX    TMP DP  RH WIND       PRES   REMARKS
MUSCLE SHOALS  CLEAR     47  43  86 CALM      29.96F


...MIDDLE TENNESSEE...

CITY           SKY/WX    TMP DP  RH WIND       PRES   REMARKS
NASHVILLE      CLEAR     51  36  56 CALM      29.98F
CLARKSVILLE    PTCLDY    50  35  56 E7        29.98F
DICKSON        PTCLDY    50  32  50 E3        29.98S
COLUMBIA       CLEAR     43  43 100 CALM      29.96F
LEWISBURG      CLEAR     39  37  92 CALM      29.97F


...WESTERN KENTUCKY...

CITY           SKY/WX    TMP DP  RH WIND       PRES   REMARKS
PADUCAH        CLEAR     50  38  63 E7        29.95F
FORT CAMPBELL  PTCLDY    51  35  54 E6        29.98F


...CENTRAL ARKANSAS...

CITY           SKY/WX    TMP DP  RH WIND       PRES   REMARKS
LITTLE ROCK    PTCLDY    57  46  66 CALM      29.88F


SKY/WX REPORTED AS FAIR MEANS FEW OR NO CLOUDS BELOW
12 THOUSAND FEET.





U.S. Dept. of Commerce
NOAA National Weather Service
1325 East West Highway
Silver Spring, MD 20910
E-mail: w-nws.webmaster@noaa.gov
Page last modified: May 16, 2007
NATIONAL WEATHER SERVICE: for Safety, for Work, for Fun - FOR LIFE